Regional Weather Roundup
Issued by NWS Green Bay, WI

Home | Current Version | Previous Version | Graphics & Text | Print | Product List | Glossary Off
Versions: 1 2 3 4 5 6 7 8 9 10 11 12 13 14 15 16 17 18 19 20 21 22 23 24 25 26 27 28 29 30 31 32 33 34 35 36 37 38 39 40 41 42 43 44 45 46 47 48 49 50

000
ASUS43 KGRB 220300
RWRGRB

NORTH-CENTRAL AND NORTHEAST WISCONSIN REGIONAL WEATHER ROUNDUP
NATIONAL WEATHER SERVICE GREEN BAY WI
1000 PM CDT SAT APR 21 2018

WIZ005-009-010>012-018-019-220400-
NORTH CENTRAL WISCONSIN

CITY           SKY/WX    TMP DP  RH WIND       PRES   REMARKS
IRONWOOD       FAIR      35  23  61 CALM      30.37R
MANITOWISH WTR NOT AVBL
ARBOR VITAE    NOT AVBL
EAGLE RIVER    FAIR      37  13  37 CALM      30.35R
LAND O LAKES   FAIR      35  20  53 CALM      30.37R
RHINELANDER    FAIR      42  26  53 W5        30.36R
PHILLIPS       FAIR      35  23  62 CALM      30.35S
ANTIGO         NOT AVBL
TOMAHAWK       NOT AVBL
MERRILL          N/A     36  26  65 CALM      30.37R
$$

WIZ013-073-220400-
NORTHEAST WISCONSIN

CITY           SKY/WX    TMP DP  RH WIND       PRES   REMARKS
IRON MOUNTAIN  FAIR      47  22  37 E3        30.33R
MARINETTE      FAIR      44  21  40 SW6       30.38R
$$

WIZ017-030-035>037-045-220400-
CENTRAL WISCONSIN

CITY           SKY/WX    TMP DP  RH WIND       PRES   REMARKS
MEDFORD        NOT AVBL
WAUSAU         FAIR      41  28  60 CALM      30.36R
MOSINEE        CLEAR     45  25  45 CALM      30.38R
MARSHFIELD     FAIR      43  28  55 CALM      30.36R
WISC RAPIDS    FAIR      39  23  52 CALM      30.38R
STEVENS POINT  NOT AVBL
WAUPACA        FAIR      41  30  64 CALM      30.38S
SHAWANO        FAIR      44  25  47 CALM      30.37R
CLINTONVILLE   FAIR      40  26  56 CALM      30.37S
WAUTOMA        FAIR      37  29  72 CALM      30.39R
$$

WIZ038-039-048-051-220400-
FOX VALLEY

CITY           SKY/WX    TMP DP  RH WIND       PRES   REMARKS
NWS GREEN BAY  FAIR      40  28  62 S5        30.39R
APPLETON       CLEAR     45  25  45 CALM      30.37R
OSHKOSH        FAIR      41  32  70 SW3       30.38R
FOND DU LAC    FAIR      38  29  70 CALM      30.39R
$$

WIZ022-050-052-220400-
EAST CENTRAL WISCONSIN

CITY           SKY/WX    TMP DP  RH WIND       PRES   REMARKS
EPHRAIM        NOT AVBL
WASHINGTON ISL NOT AVBL
STURGEON BAY   FAIR      44  24  45 S7        30.39R
MANITOWOC      FAIR      37  23  56 CALM      30.40R
SHEBOYGAN      FAIR      42  27  55 SW3       30.39R
$$

LMZ563-521-522-541>543-220400-
LAKESHORE

STATION/POSITION TIME  TEMP    WIND        PRES    VSBY  WAVE
                       AIR SEA DIR/SP/G                  HT/PER
                 (UTC) (F)     (DEG/KT/KT) (MB)    (MI)  (FT/S)
SHEBOYGAN LKSHOR 0200   44     210/  5/  5 1029.3R
KEWAUNEE LKSHORE 0230   41     260/  3/  3 1028.1R
NORTHPORT PIER   0240   41                 1028.4R
SISTER BAY LKSHO 0212   46     140/  8/ 11   N/A
MENOMINEE LKSHOR 0230   45     190/  7/ 10 1028.0R
$$



USA.gov is the U.S. government's official web portal to all federal, state and local government web resources and services.